| time (UTC) | temp C | wind direction | speed KPH | gust KPH | rain 1hr cm | rain 24hr cm | rain mn cm | humidity % | barometer mb |
| 20260506171017 | 24 | 188 | 12.9 | 25.7 | 0.00 | 0.00 | 0.00 | 78 | 1014.1 |
| 20260506170536 | 25 | 183 | 8.0 | 22.5 | 0.00 | 0.00 | 0.00 | 80 | 1014.1 |
| 20260506170014 | 24 | 234 | 11.3 | 22.5 | 0.00 | 0.00 | 0.00 | 79 | 1014.1 |
| 20260506165514 | 24 | 153 | 3.2 | 19.3 | 0.00 | 0.00 | 0.00 | 82 | 1014.3 |
| 20260506165020 | 23 | 188 | 9.7 | 19.3 | 0.00 | 0.00 | 0.00 | 81 | 1014.3 |
| 20260506164517 | 23 | 115 | 4.8 | 17.7 | 0.00 | 0.00 | 0.00 | 81 | 1014.3 |
| 20260506164020 | 23 | 216 | 3.2 | 17.7 | 0.00 | 0.00 | 0.00 | 81 | 1014.3 |
| 20260506163543 | 23 | 184 | 6.4 | 16.1 | 0.00 | 0.00 | 0.00 | 81 | 1014.3 |
| 20260506163023 | 23 | 189 | 6.4 | 19.3 | 0.00 | 0.00 | 0.00 | 81 | 1014.2 |
| 20260506162523 | 23 | 171 | 6.4 | 11.3 | 0.00 | 0.00 | 0.00 | 81 | 1014.2 |
| 20260506162024 | 23 | 217 | 3.2 | 16.1 | 0.00 | 0.00 | 0.00 | 82 | 1014.3 |
| 20260506161527 | 23 | 141 | 6.4 | 16.1 | 0.00 | 0.00 | 0.00 | 81 | 1014.2 |
| 20260506161029 | 23 | 150 | 4.8 | 14.5 | 0.00 | 0.00 | 0.00 | 82 | 1014.2 |
| 20260506160528 | 23 | 140 | 8.0 | 22.5 | 0.00 | 0.00 | 0.00 | 81 | 1014.1 |
| 20260506160031 | 23 | 195 | 9.7 | 22.5 | 0.00 | 0.00 | 0.00 | 81 | 1014.0 |
| 20260506155519 | 23 | 203 | 8.0 | 19.3 | 0.00 | 0.00 | 0.00 | 81 | 1014.1 |
| 20260506155021 | 22 | 144 | 9.7 | 19.3 | 0.00 | 0.00 | 0.00 | 82 | 1014.1 |
| 20260506154523 | 22 | 170 | 6.4 | 19.3 | 0.00 | 0.00 | 0.00 | 82 | 1014.1 |
| 20260506154024 | 22 | 121 | 9.7 | 19.3 | 0.00 | 0.00 | 0.00 | 81 | 1014.2 |
| 20260506153524 | 23 | 127 | 11.3 | 19.3 | 0.00 | 0.00 | 0.00 | 81 | 1014.3 |
| 20260506153044 | 23 | 194 | 8.0 | 22.5 | 0.00 | 0.00 | 0.00 | 81 | 1014.3 |
| 20260506152543 | 23 | 209 | 9.7 | 22.5 | 0.00 | 0.00 | 0.00 | 81 | 1014.3 |
| 20260506152023 | 23 | 168 | 9.7 | 22.5 | 0.00 | 0.00 | 0.00 | 81 | 1014.3 |
| 20260506151524 | 23 | 216 | 8.0 | 17.7 | 0.00 | 0.00 | 0.00 | 82 | 1014.4 |
| 20260506151025 | 23 | 259 | 8.0 | 24.1 | 0.00 | 0.00 | 0.00 | 80 | 1014.3 |
| 20260506150527 | 23 | 176 | 8.0 | 24.1 | 0.00 | 0.00 | 0.00 | 81 | 1014.4 |
| 20260506150028 | 22 | 160 | 6.4 | 35.4 | 0.00 | 0.00 | 0.00 | 82 | 1014.4 |
| 20260506145513 | 22 | 209 | 12.9 | 35.4 | 0.00 | 0.00 | 0.00 | 82 | 1014.3 |
| 20260506145031 | 22 | 218 | 8.0 | 22.5 | 0.00 | 0.00 | 0.00 | 84 | 1014.5 |
| 20260506144530 | 22 | 163 | 4.8 | 17.7 | 0.00 | 0.00 | 0.00 | 84 | 1014.5 |
| 20260506144018 | 22 | 175 | 8.0 | 20.9 | 0.00 | 0.00 | 0.00 | 84 | 1014.6 |
| 20260506143521 | 22 | 273 | 11.3 | 20.9 | 0.00 | 0.00 | 0.00 | 85 | 1014.5 |
| 20260506143023 | 22 | 202 | 11.3 | 20.9 | 0.00 | 0.00 | 0.00 | 85 | 1014.5 |
| 20260506142525 | 21 | 141 | 11.3 | 20.9 | 0.00 | 0.00 | 0.00 | 85 | 1014.5 |
| 20260506142030 | 21 | 178 | 11.3 | 19.3 | 0.00 | 0.00 | 0.00 | 85 | 1014.4 |
| 20260506141529 | 21 | 167 | 8.0 | 16.1 | 0.00 | 0.00 | 0.00 | 87 | 1014.4 |
| 20260506141031 | 21 | 143 | 6.4 | 16.1 | 0.00 | 0.00 | 0.00 | 88 | 1014.5 |
| 20260506140519 | 21 | 175 | 4.8 | 16.1 | 0.00 | 0.00 | 0.00 | 88 | 1014.5 |
| 20260506140023 | 21 | 170 | 8.0 | 19.3 | 0.00 | 0.00 | 0.00 | 88 | 1014.4 |
| 20260506135524 | 21 | 174 | 8.0 | 19.3 | 0.00 | 0.00 | 0.00 | 88 | 1014.5 |
| 20260506135024 | 20 | 209 | 6.4 | 16.1 | 0.00 | 0.00 | 0.00 | 88 | 1014.5 |
| 20260506134546 | 20 | 154 | 6.4 | 12.9 | 0.00 | 0.00 | 0.00 | 88 | 1014.5 |
| 20260506134051 | 20 | 115 | 6.4 | 17.7 | 0.00 | 0.00 | 0.00 | 88 | 1014.6 |
| 20260506133519 | 20 | 171 | 4.8 | 17.7 | 0.00 | 0.00 | 0.00 | 89 | 1014.7 |
| 20260506133027 | 20 | 197 | 6.4 | 17.7 | 0.00 | 0.00 | 0.00 | 89 | 1014.6 |
| 20260506132529 | 20 | 194 | 6.4 | 16.1 | 0.00 | 0.00 | 0.00 | 90 | 1014.9 |
| 20260506132030 | 20 | 193 | 6.4 | 19.3 | 0.00 | 0.00 | 0.00 | 90 | 1014.8 |
| 20260506131519 | 20 | 222 | 9.7 | 19.3 | 0.00 | 0.00 | 0.00 | 91 | 1015.0 |
| 20260506131021 | 19 | 238 | 1.6 | 12.9 | 0.00 | 0.00 | 0.00 | 91 | 1015.0 |
| 20260506130521 | 19 | 189 | 3.2 | 14.5 | 0.00 | 0.00 | 0.00 | 91 | 1014.9 |
| 20260506130026 | 19 | 288 | 4.8 | 24.1 | 0.00 | 0.00 | 0.00 | 91 | 1014.6 |
| 20260506125531 | 19 | 192 | 6.4 | 24.1 | 0.00 | 0.00 | 0.00 | 91 | 1014.5 |
| 20260506125033 | 19 | 245 | 6.4 | 19.3 | 0.00 | 0.00 | 0.00 | 91 | 1014.6 |
| 20260506124514 | 19 | 282 | 6.4 | 19.3 | 0.00 | 0.00 | 0.00 | 91 | 1014.7 |
| 20260506124020 | 19 | 166 | 8.0 | 17.7 | 0.00 | 0.00 | 0.00 | 91 | 1014.6 |
| 20260506123520 | 19 | 197 | 6.4 | 17.7 | 0.00 | 0.00 | 0.00 | 91 | 1014.6 |
| 20260506123023 | 19 | 179 | 6.4 | 14.5 | 0.00 | 0.00 | 0.00 | 91 | 1014.7 |
| 20260506122529 | 18 | 266 | 4.8 | 16.1 | 0.00 | 0.00 | 0.00 | 91 | 1014.4 |
| 20260506122030 | 18 | 161 | 1.6 | 16.1 | 0.00 | 0.00 | 0.00 | 91 | 1014.2 |
| 20260506121518 | 18 | 219 | 6.4 | 22.5 | 0.00 | 0.00 | 0.00 | 91 | 1014.2 |
| 20260506121020 | 18 | 171 | 6.4 | 30.6 | 0.00 | 0.00 | 0.00 | 91 | 1013.9 |
| 20260506120523 | 18 | 147 | 11.3 | 33.8 | 0.00 | 0.00 | 0.00 | 91 | 1013.8 |
| 20260506120030 | 18 | 192 | 3.2 | 19.3 | 0.00 | 0.00 | 0.00 | 91 | 1013.7 |
| 20260506115516 | 18 | 192 | 9.7 | 22.5 | 0.00 | 0.00 | 0.00 | 91 | 1013.6 |
| 20260506115022 | 18 | 158 | 6.4 | 22.5 | 0.00 | 0.00 | 0.00 | 91 | 1013.8 |
| 20260506114525 | 18 | 197 | 6.4 | 20.9 | 0.00 | 0.00 | 0.00 | 91 | 1013.8 |
| 20260506114030 | 18 | 232 | 11.3 | 20.9 | 0.00 | 0.00 | 0.00 | 91 | 1013.4 |
| 20260506113518 | 18 | 212 | 6.4 | 20.9 | 0.00 | 0.00 | 0.00 | 91 | 1013.3 |
| 20260506113040 | 18 | 198 | 9.7 | 17.7 | 0.00 | 0.00 | 0.00 | 90 | 1013.3 |
| 20260506112520 | 18 | 193 | 6.4 | 17.7 | 0.00 | 0.00 | 0.00 | 90 | 1013.3 |
| 20260506112046 | 18 | 195 | 6.4 | 14.5 | 0.00 | 0.00 | 0.00 | 90 | 1013.2 |
| 20260506111528 | 18 | 176 | 4.8 | 20.9 | 0.00 | 0.00 | 0.00 | 90 | 1013.2 |
| 20260506111030 | 18 | 196 | 9.7 | 22.5 | 0.00 | 0.00 | 0.00 | 90 | 1013.3 |
| 20260506110517 | 18 | 196 | 6.4 | 22.5 | 0.00 | 0.00 | 0.00 | 90 | 1013.2 |
| 20260506110017 | 18 | 198 | 6.4 | 22.5 | 0.00 | 0.00 | 0.00 | 90 | 1013.1 |
| 20260506105520 | 18 | 229 | 3.2 | 14.5 | 0.00 | 0.00 | 0.00 | 90 | 1013.0 |
| 20260506105025 | 18 | 132 | 8.0 | 16.1 | 0.00 | 0.00 | 0.00 | 90 | 1012.8 |
| 20260506104529 | 18 | 227 | 6.4 | 11.3 | 0.00 | 0.00 | 0.00 | 90 | 1012.9 |
| 20260506104030 | 18 | 205 | 4.8 | 11.3 | 0.00 | 0.00 | 0.00 | 90 | 1012.9 |
| 20260506103513 | 18 | 184 | 4.8 | 14.5 | 0.00 | 0.00 | 0.00 | 90 | 1012.8 |
| 20260506103032 | 18 | 190 | 8.0 | 14.5 | 0.00 | 0.00 | 0.00 | 90 | 1012.7 |
| 20260506102522 | 18 | 134 | 4.8 | 17.7 | 0.00 | 0.00 | 0.00 | 90 | 1012.7 |
| 20260506102038 | 18 | 144 | 4.8 | 12.9 | 0.00 | 0.00 | 0.00 | 90 | 1012.7 |
| 20260506101518 | 18 | 185 | 4.8 | 14.5 | 0.00 | 0.00 | 0.00 | 90 | 1012.5 |
| 20260506101020 | 18 | 175 | 6.4 | 14.5 | 0.00 | 0.00 | 0.00 | 90 | 1012.5 |
| 20260506100523 | 18 | 202 | 6.4 | 12.9 | 0.00 | 0.00 | 0.00 | 90 | 1012.3 |
| 20260506100043 | 18 | 190 | 1.6 | 12.9 | 0.00 | 0.00 | 0.00 | 90 | 1012.2 |
| 20260506095545 | 18 | 164 | 4.8 | 11.3 | 0.00 | 0.00 | 0.00 | 90 | 1012.2 |
| 20260506095045 | 18 | 152 | 4.8 | 11.3 | 0.00 | 0.00 | 0.00 | 90 | 1012.0 |
| 20260506094527 | 18 | 181 | 6.4 | 11.3 | 0.00 | 0.00 | 0.00 | 90 | 1011.9 |
| 20260506094030 | 18 | 154 | 6.4 | 14.5 | 0.00 | 0.00 | 0.00 | 90 | 1011.8 |
| 20260506093530 | 18 | 165 | 8.0 | 17.7 | 0.00 | 0.00 | 0.00 | 89 | 1011.7 |
| 20260506093024 | 18 | 175 | 9.7 | 19.3 | 0.00 | 0.00 | 0.00 | 90 | 1011.7 |
| 20260506092548 | 18 | 223 | 6.4 | 16.1 | 0.00 | 0.00 | 0.00 | 89 | 1011.6 |
| 20260506092025 | 18 | 189 | 6.4 | 16.1 | 0.00 | 0.00 | 0.00 | 89 | 1011.7 |
| 20260506091550 | 18 | 170 | 6.4 | 12.9 | 0.00 | 0.00 | 0.00 | 89 | 1011.7 |
| 20260506091032 | 18 | 145 | 3.2 | 22.5 | 0.00 | 0.00 | 0.00 | 89 | 1011.6 |
| 20260506090518 | 18 | 153 | 8.0 | 22.5 | 0.00 | 0.00 | 0.00 | 89 | 1011.4 |
| 20260506090020 | 18 | 148 | 8.0 | 17.7 | 0.00 | 0.00 | 0.00 | 89 | 1011.3 |
| 20260506085526 | 18 | 170 | 9.7 | 17.7 | 0.00 | 0.00 | 0.00 | 89 | 1011.2 |
| 20260506085050 | 18 | 157 | 6.4 | 14.5 | 0.00 | 0.00 | 0.00 | 88 | 1011.3 |
| 20260506084518 | 18 | 169 | 8.0 | 14.5 | 0.00 | 0.00 | 0.00 | 88 | 1011.4 |
| 20260506084043 | 18 | 195 | 8.0 | 14.5 | 0.00 | 0.00 | 0.00 | 88 | 1011.4 |
| 20260506083521 | 18 | 179 | 6.4 | 12.9 | 0.00 | 0.00 | 0.00 | 88 | 1011.6 |
| 20260506083025 | 18 | 134 | 8.0 | 14.5 | 0.00 | 0.00 | 0.00 | 88 | 1011.6 |
| 20260506082544 | 18 | 173 | 8.0 | 14.5 | 0.00 | 0.00 | 0.00 | 88 | 1011.6 |
| 20260506082049 | 18 | 163 | 9.7 | 14.5 | 0.00 | 0.00 | 0.00 | 88 | 1011.6 |
| 20260506081518 | 18 | 155 | 6.4 | 14.5 | 0.00 | 0.00 | 0.00 | 88 | 1011.6 |
| 20260506081041 | 18 | 182 | 9.7 | 14.5 | 0.00 | 0.00 | 0.00 | 88 | 1011.6 |
| 20260506080523 | 18 | 155 | 6.4 | 16.1 | 0.00 | 0.00 | 0.00 | 87 | 1011.7 |
| 20260506073020 | 18 | 142 | 8.0 | 16.1 | 0.00 | 0.00 | 0.00 | 84 | 1011.6 |
| 20260506072522 | 18 | 139 | 8.0 | 16.1 | 0.00 | 0.00 | 0.00 | 84 | 1011.8 |
| 20260506072043 | 18 | 172 | 9.7 | 16.1 | 0.00 | 0.00 | 0.00 | 84 | 1011.7 |
| 20260506071526 | 18 | 161 | 8.0 | 16.1 | 0.00 | 0.00 | 0.00 | 84 | 1011.8 |
| 20260506071029 | 18 | 175 | 8.0 | 16.1 | 0.00 | 0.00 | 0.00 | 83 | 1012.0 |
| 20260506070552 | 18 | 170 | 8.0 | 14.5 | 0.00 | 0.00 | 0.00 | 83 | 1012.0 |
| 20260506062019 | 19 | 178 | 6.4 | 14.5 | 0.00 | 0.00 | 0.00 | 81 | 1012.4 |
| 20260506061518 | 19 | 140 | 8.0 | 16.1 | 0.00 | 0.00 | 0.00 | 80 | 1012.4 |
| 20260506061022 | 19 | 188 | 8.0 | 24.1 | 0.00 | 0.00 | 0.00 | 80 | 1012.4 |
| 20260506060525 | 19 | 165 | 9.7 | 22.5 | 0.00 | 0.00 | 0.00 | 80 | 1012.4 |
| 20260506051020 | 20 | 159 | 8.0 | 27.4 | 0.00 | 0.00 | 0.00 | 78 | 1012.5 |
| 20260506050524 | 20 | 235 | 9.7 | 27.4 | 0.00 | 0.00 | 0.00 | 77 | 1012.6 |
| 20260506045025 | 20 | 165 | 12.9 | 27.4 | 0.00 | 0.00 | 0.00 | 77 | 1012.3 |
| 20260506044514 | 20 | 159 | 12.9 | 22.5 | 0.00 | 0.00 | 0.00 | 77 | 1012.1 |
| 20260506044032 | 20 | 202 | 11.3 | 30.6 | 0.00 | 0.00 | 0.00 | 77 | 1012.1 |
| 20260506043021 | 20 | 182 | 11.3 | 17.7 | 0.00 | 0.00 | 0.00 | 76 | 1012.2 |
| 20260506042014 | 20 | 125 | 12.9 | 29.0 | 0.00 | 0.00 | 0.00 | 77 | 1012.4 |
| 20260506041513 | 20 | 157 | 14.5 | 22.5 | 0.00 | 0.00 | 0.00 | 77 | 1012.4 |
| 20260506041022 | 20 | 155 | 12.9 | 27.4 | 0.00 | 0.00 | 0.00 | 77 | 1012.4 |
| 20260506040524 | 20 | 155 | 12.9 | 27.4 | 0.00 | 0.00 | 0.00 | 78 | 1012.4 |
| 20260506040027 | 20 | 149 | 12.9 | 25.7 | 0.00 | 0.00 | 0.00 | 78 | 1012.4 |
| 20260506035527 | 20 | 190 | 11.3 | 20.9 | 0.00 | 0.00 | 0.00 | 78 | 1012.4 |
| 20260506035015 | 20 | 204 | 11.3 | 24.1 | 0.00 | 0.00 | 0.00 | 79 | 1012.5 |
| 20260506034536 | 20 | 163 | 11.3 | 24.1 | 0.00 | 0.00 | 0.00 | 80 | 1012.4 |
| 20260506034040 | 19 | 178 | 9.7 | 19.3 | 0.00 | 0.00 | 0.00 | 81 | 1012.5 |
| 20260506033521 | 19 | 180 | 9.7 | 20.9 | 0.00 | 0.00 | 0.00 | 81 | 1012.5 |
| 20260506033019 | 19 | 146 | 11.3 | 20.9 | 0.00 | 0.00 | 0.00 | 81 | 1012.6 |
| 20260506032519 | 19 | 161 | 9.7 | 16.1 | 0.00 | 0.00 | 0.00 | 80 | 1012.6 |
| 20260506032023 | 19 | 167 | 9.7 | 16.1 | 0.00 | 0.00 | 0.00 | 81 | 1012.5 |
| 20260506031527 | 19 | 167 | 9.7 | 14.5 | 0.00 | 0.00 | 0.00 | 81 | 1012.3 |
| 20260506031049 | 18 | 156 | 8.0 | 14.5 | 0.00 | 0.00 | 0.00 | 81 | 1012.3 |
| 20260506030516 | 18 | 138 | 9.7 | 14.5 | 0.00 | 0.00 | 0.00 | 81 | 1012.3 |
| 20260506030020 | 18 | 163 | 9.7 | 14.5 | 0.00 | 0.00 | 0.00 | 81 | 1012.1 |
| 20260506025548 | 18 | 155 | 8.0 | 14.5 | 0.00 | 0.00 | 0.00 | 81 | 1012.1 |
| 20260506025029 | 18 | 134 | 9.7 | 14.5 | 0.00 | 0.00 | 0.00 | 80 | 1012.1 |
| 20260506024531 | 19 | 163 | 8.0 | 12.9 | 0.00 | 0.00 | 0.00 | 80 | 1012.1 |
| 20260506024020 | 19 | 163 | 9.7 | 14.5 | 0.00 | 0.00 | 0.00 | 80 | 1012.0 |
| 20260506023522 | 19 | 128 | 9.7 | 14.5 | 0.00 | 0.00 | 0.00 | 78 | 1011.9 |
| 20260506023023 | 19 | 137 | 8.0 | 14.5 | 0.00 | 0.00 | 0.00 | 79 | 1012.0 |
| 20260506022545 | 19 | 144 | 9.7 | 14.5 | 0.00 | 0.00 | 0.00 | 80 | 1011.9 |
| 20260506022030 | 19 | 164 | 9.7 | 16.1 | 0.00 | 0.00 | 0.00 | 79 | 1011.8 |
| 20260506021518 | 19 | 143 | 9.7 | 16.1 | 0.00 | 0.00 | 0.00 | 78 | 1011.9 |
| 20260506021039 | 19 | 152 | 8.0 | 12.9 | 0.00 | 0.00 | 0.00 | 77 | 1011.9 |
| 20260506020521 | 20 | 159 | 8.0 | 12.9 | 0.00 | 0.00 | 0.00 | 77 | 1011.9 |
| 20260506020022 | 20 | 130 | 8.0 | 12.9 | 0.00 | 0.00 | 0.00 | 76 | 1012.0 |
| 20260506015526 | 20 | 149 | 8.0 | 14.5 | 0.00 | 0.00 | 0.00 | 77 | 1011.8 |
| 20260506015029 | 20 | 136 | 8.0 | 14.5 | 0.00 | 0.00 | 0.00 | 77 | 1011.7 |
| 20260506014517 | 20 | 154 | 8.0 | 11.3 | 0.00 | 0.00 | 0.00 | 78 | 1011.8 |
| 20260506014019 | 20 | 155 | 8.0 | 11.3 | 0.00 | 0.00 | 0.00 | 77 | 1011.7 |
| 20260506013520 | 20 | 153 | 6.4 | 8.0 | 0.00 | 0.00 | 0.00 | 77 | 1011.9 |
| 20260506013045 | 20 | 138 | 6.4 | 11.3 | 0.00 | 0.00 | 0.00 | 76 | 1012.0 |
| 20260506012527 | 20 | 142 | 6.4 | 11.3 | 0.00 | 0.00 | 0.00 | 73 | 1012.1 |
| 20260506012028 | 20 | 176 | 6.4 | 8.0 | 0.00 | 0.00 | 0.00 | 74 | 1012.1 |
| 20260506011531 | 20 | 154 | 4.8 | 8.0 | 0.00 | 0.00 | 0.00 | 76 | 1012.0 |
| 20260506011052 | 20 | 138 | 6.4 | 8.0 | 0.00 | 0.00 | 0.00 | 75 | 1012.0 |
| 20260506010516 | 20 | 150 | 4.8 | 8.0 | 0.00 | 0.00 | 0.00 | 76 | 1011.9 |
| 20260506010019 | 20 | 143 | 6.4 | 8.0 | 0.00 | 0.00 | 0.00 | 76 | 1011.9 |
| 20260506005523 | 20 | 148 | 6.4 | 8.0 | 0.00 | 0.00 | 0.00 | 76 | 1011.9 |
| 20260506005023 | 20 | 148 | 6.4 | 8.0 | 0.00 | 0.00 | 0.00 | 75 | 1011.9 |
| 20260506004524 | 21 | 135 | 4.8 | 8.0 | 0.00 | 0.00 | 0.00 | 76 | 1011.9 |
| 20260506004022 | 21 | 158 | 4.8 | 6.4 | 0.00 | 0.00 | 0.00 | 73 | 1011.8 |
| 20260506003527 | 21 | 136 | 4.8 | 6.4 | 0.00 | 0.00 | 0.00 | 73 | 1011.8 |
| 20260506003027 | 21 | 139 | 4.8 | 6.4 | 0.00 | 0.00 | 0.00 | 74 | 1011.8 |
| 20260506002515 | 21 | 136 | 4.8 | 8.0 | 0.00 | 0.00 | 0.00 | 72 | 1011.7 |
| 20260506002021 | 21 | 167 | 3.2 | 8.0 | 0.00 | 0.00 | 0.00 | 74 | 1011.8 |
| 20260506001523 | 21 | 140 | 6.4 | 11.3 | 0.00 | 0.00 | 0.00 | 72 | 1011.9 |
| 20260506001025 | 22 | 159 | 6.4 | 11.3 | 0.00 | 0.00 | 0.00 | 69 | 1012.0 |
| 20260506000548 | 22 | 168 | 4.8 | 8.0 | 0.00 | 0.00 | 0.00 | 67 | 1012.1 |
| 20260506000032 | 22 | 166 | 1.6 | 4.8 | 0.00 | 0.00 | 0.00 | 68 | 1012.1 |
| 20260505235515 | 21 | 161 | 1.6 | 9.7 | 0.00 | 0.00 | 0.00 | 69 | 1012.1 |
| 20260505235018 | 21 | 146 | 4.8 | 11.3 | 0.00 | 0.00 | 0.00 | 71 | 1011.9 |
| 20260505234520 | 22 | 152 | 6.4 | 11.3 | 0.00 | 0.00 | 0.00 | 71 | 1011.7 |
| 20260505234023 | 22 | 144 | 6.4 | 11.3 | 0.00 | 0.00 | 0.00 | 72 | 1011.9 |
| 20260505233526 | 22 | 126 | 8.0 | 12.9 | 0.00 | 0.00 | 0.00 | 71 | 1011.9 |
| 20260505233030 | 22 | 139 | 6.4 | 12.9 | 0.00 | 0.00 | 0.00 | 72 | 1012.1 |
| 20260505232518 | 22 | 128 | 8.0 | 11.3 | 0.00 | 0.00 | 0.00 | 70 | 1012.2 |
| 20260505232039 | 22 | 123 | 8.0 | 11.3 | 0.00 | 0.00 | 0.00 | 69 | 1012.2 |
| 20260505231519 | 22 | 121 | 6.4 | 9.7 | 0.00 | 0.00 | 0.00 | 68 | 1012.3 |
| 20260505231048 | 22 | 130 | 4.8 | 8.0 | 0.00 | 0.00 | 0.00 | 67 | 1012.4 |
| 20260505230527 | 22 | 154 | 6.4 | 11.3 | 0.00 | 0.00 | 0.00 | 66 | 1012.2 |
| 20260505230015 | 22 | 155 | 6.4 | 11.3 | 0.00 | 0.00 | 0.00 | 66 | 1012.3 |
| 20260505225538 | 22 | 136 | 6.4 | 11.3 | 0.00 | 0.00 | 0.00 | 66 | 1012.3 |
| 20260505225020 | 22 | 157 | 8.0 | 11.3 | 0.00 | 0.00 | 0.00 | 65 | 1012.2 |
| 20260505224523 | 22 | 142 | 6.4 | 12.9 | 0.00 | 0.00 | 0.00 | 64 | 1012.3 |
| 20260505224027 | 23 | 157 | 6.4 | 14.5 | 0.00 | 0.00 | 0.00 | 64 | 1012.4 |
| 20260505223530 | 23 | 146 | 6.4 | 14.5 | 0.00 | 0.00 | 0.00 | 62 | 1012.5 |
| 20260505223033 | 23 | 148 | 6.4 | 14.5 | 0.00 | 0.00 | 0.00 | 62 | 1012.3 |
| 20260505222530 | 23 | 133 | 6.4 | 16.1 | 0.00 | 0.00 | 0.00 | 62 | 1012.3 |
| 20260505222020 | 23 | 146 | 9.7 | 16.1 | 0.00 | 0.00 | 0.00 | 62 | 1012.2 |
| 20260505221525 | 23 | 111 | 9.7 | 17.7 | 0.00 | 0.00 | 0.00 | 64 | 1012.3 |
| 20260505221029 | 23 | 136 | 8.0 | 16.1 | 0.00 | 0.00 | 0.00 | 64 | 1012.3 |
| 20260505220519 | 23 | 140 | 8.0 | 16.1 | 0.00 | 0.00 | 0.00 | 62 | 1012.3 |
| 20260505220023 | 23 | 160 | 9.7 | 12.9 | 0.00 | 0.00 | 0.00 | 62 | 1012.3 |
| 20260505215523 | 23 | 169 | 8.0 | 12.9 | 0.00 | 0.00 | 0.00 | 61 | 1012.4 |
| 20260505215021 | 23 | 153 | 6.4 | 16.1 | 0.00 | 0.00 | 0.00 | 60 | 1012.5 |
| 20260505214524 | 23 | 163 | 4.8 | 16.1 | 0.00 | 0.00 | 0.00 | 59 | 1012.6 |
| 20260505214052 | 23 | 215 | 6.4 | 19.3 | 0.00 | 0.00 | 0.00 | 62 | 1012.6 |
| 20260505213520 | 23 | 197 | 11.3 | 19.3 | 0.00 | 0.00 | 0.00 | 57 | 1012.6 |
| 20260505213026 | 23 | 191 | 11.3 | 22.5 | 0.00 | 0.00 | 0.00 | 58 | 1012.5 |
| 20260505212524 | 23 | 189 | 8.0 | 19.3 | 0.00 | 0.00 | 0.00 | 57 | 1012.6 |
| 20260505212028 | 24 | 238 | 6.4 | 19.3 | 0.00 | 0.00 | 0.00 | 57 | 1012.5 |
| 20260505211529 | 24 | 140 | 9.7 | 22.5 | 0.00 | 0.00 | 0.00 | 59 | 1012.5 |
| 20260505211018 | 25 | 205 | 11.3 | 20.9 | 0.00 | 0.00 | 0.00 | 56 | 1012.4 |
| 20260505210519 | 25 | 157 | 11.3 | 24.1 | 0.00 | 0.00 | 0.00 | 55 | 1012.4 |
| 20260505210047 | 25 | 137 | 12.9 | 24.1 | 0.00 | 0.00 | 0.00 | 56 | 1012.2 |
| 20260505205524 | 25 | 170 | 9.7 | 16.1 | 0.00 | 0.00 | 0.00 | 55 | 1012.4 |
| 20260505205024 | 25 | 113 | 11.3 | 20.9 | 0.00 | 0.00 | 0.00 | 54 | 1012.5 |
| 20260505204525 | 25 | 171 | 11.3 | 24.1 | 0.00 | 0.00 | 0.00 | 57 | 1012.7 |
| 20260505204030 | 25 | 188 | 9.7 | 24.1 | 0.00 | 0.00 | 0.00 | 56 | 1012.5 |
| 20260505203518 | 25 | 144 | 14.5 | 27.4 | 0.00 | 0.00 | 0.00 | 57 | 1012.7 |
| 20260505203015 | 25 | 150 | 16.1 | 27.4 | 0.00 | 0.00 | 0.00 | 55 | 1012.7 |
| 20260505202537 | 25 | 138 | 14.5 | 24.1 | 0.00 | 0.00 | 0.00 | 57 | 1012.7 |
| 20260505202022 | 25 | 265 | 11.3 | 24.1 | 0.00 | 0.00 | 0.00 | 54 | 1012.9 |
| 20260505201521 | 25 | 109 | 8.0 | 17.7 | 0.00 | 0.00 | 0.00 | 58 | 1013.0 |
| 20260505200521 | 25 | 149 | 6.4 | 19.3 | 0.00 | 0.00 | 0.00 | 58 | 1013.3 |
| 20260505200022 | 25 | 209 | 12.9 | 19.3 | 0.00 | 0.00 | 0.00 | 54 | 1013.3 |
| 20260505195526 | 25 | 215 | 8.0 | 24.1 | 0.00 | 0.00 | 0.00 | 56 | 1013.3 |
| 20260505195050 | 25 | 159 | 16.1 | 24.1 | 0.00 | 0.00 | 0.00 | 58 | 1013.2 |
| 20260505194519 | 24 | 180 | 9.7 | 16.1 | 0.00 | 0.00 | 0.00 | 60 | 1013.4 |
| 20260505194023 | 25 | 216 | 8.0 | 22.5 | 0.00 | 0.00 | 0.00 | 57 | 1013.3 |
| 20260505193522 | 25 | 178 | 8.0 | 29.0 | 0.00 | 0.00 | 0.00 | 56 | 1013.5 |
| 20260505193048 | 24 | 173 | 12.9 | 22.5 | 0.00 | 0.00 | 0.00 | 57 | 1013.3 |
| 20260505192530 | 25 | 199 | 6.4 | 19.3 | 0.00 | 0.00 | 0.00 | 57 | 1013.4 |
| 20260505192019 | 25 | 202 | 6.4 | 19.3 | 0.00 | 0.00 | 0.00 | 57 | 1013.4 |
| 20260505191546 | 25 | 115 | 11.3 | 19.3 | 0.00 | 0.00 | 0.00 | 55 | 1013.5 |
| 20260505191025 | 25 | 138 | 8.0 | 20.9 | 0.00 | 0.00 | 0.00 | 59 | 1013.6 |
| 20260505190522 | 25 | 185 | 9.7 | 20.9 | 0.00 | 0.00 | 0.00 | 58 | 1013.8 |
| 20260505190042 | 23 | 161 | 12.9 | 19.3 | 0.00 | 0.00 | 0.00 | 61 | 1013.8 |
| 20260505185518 | 23 | 225 | 9.7 | 24.1 | 0.00 | 0.00 | 0.00 | 59 | 1013.9 |
| 20260505185024 | 23 | 137 | 14.5 | 24.1 | 0.00 | 0.00 | 0.00 | 56 | 1013.9 |
| 20260505184525 | 23 | 193 | 9.7 | 22.5 | 0.00 | 0.00 | 0.00 | 60 | 1013.8 |
| 20260505184026 | 23 | 178 | 6.4 | 22.5 | 0.00 | 0.00 | 0.00 | 58 | 1013.9 |
| 20260505183527 | 23 | 132 | 8.0 | 22.5 | 0.00 | 0.00 | 0.00 | 59 | 1014.0 |
| 20260505183022 | 24 | 152 | 11.3 | 22.5 | 0.00 | 0.00 | 0.00 | 61 | 1014.0 |
| 20260505182522 | 24 | 69 | 8.0 | 25.7 | 0.00 | 0.00 | 0.00 | 59 | 1014.0 |
| 20260505182025 | 23 | 117 | 16.1 | 25.7 | 0.00 | 0.00 | 0.00 | 60 | 1014.1 |
| 20260505181526 | 22 | 142 | 11.3 | 22.5 | 0.00 | 0.00 | 0.00 | 59 | 1014.2 |
| 20260505181032 | 22 | 159 | 12.9 | 22.5 | 0.00 | 0.00 | 0.00 | 61 | 1014.3 |
| 20260505180513 | 22 | 153 | 9.7 | 20.9 | 0.00 | 0.00 | 0.00 | 60 | 1014.2 |
| 20260505180035 | 22 | 186 | 12.9 | 17.7 | 0.00 | 0.00 | 0.00 | 59 | 1014.4 |
| 20260505175520 | 23 | 180 | 6.4 | 16.1 | 0.00 | 0.00 | 0.00 | 62 | 1014.4 |
| 20260505175018 | 22 | 175 | 6.4 | 17.7 | 0.00 | 0.00 | 0.00 | 61 | 1014.5 |
| 20260505174520 | 22 | 153 | 6.4 | 22.5 | 0.00 | 0.00 | 0.00 | 60 | 1014.7 |
| 20260505174022 | 23 | 189 | 12.9 | 25.7 | 0.00 | 0.00 | 0.00 | 59 | 1014.7 |
| 20260505173524 | 23 | 144 | 16.1 | 25.7 | 0.00 | 0.00 | 0.00 | 60 | 1014.6 |
| 20260505173028 | 23 | 132 | 8.0 | 19.3 | 0.00 | 0.00 | 0.00 | 59 | 1014.7 |
| 20260505172515 | 23 | 162 | 11.3 | 19.3 | 0.00 | 0.00 | 0.00 | 61 | 1014.7 |
| 20260505172020 | 23 | 167 | 11.3 | 22.5 | 0.00 | 0.00 | 0.00 | 60 | 1014.7 |
| 20260505171518 | 23 | 107 | 9.7 | 17.7 | 0.00 | 0.00 | 0.00 | 59 | 1014.8 |